Weather History for KFTW - May, 2013

Change the Weather History Date:

Saturday, May 18, 2013

  Actual Average Record
Temperature  
Mean Temperature 82 °F -  
Max Temperature 91 °F 82 °F 93 °F (1998)
Min Temperature 73 °F 62 °F 53 °F (2002)
Cooling Degree Days 17    
Growing Degree Days 32 (Base 50)    
Moisture  
Dew Point 71 °F    
Average Humidity 72    
Maximum Humidity 93    
Minimum Humidity 53    
Precipitation  
Precipitation 0.00 in - - ()
Sea Level Pressure  
Sea Level Pressure 29.78 in    
Wind  
Wind Speed 16 mph (South)    
Max Wind Speed 22 mph    
Max Gust Speed 32 mph    
Visibility 7 miles    
Events      
Averages and records for this station are not official NWS values.
T = Trace of Precipitation, MM = Missing Value Source: NWS Daily Summary

Daily Weather History Graph

Daily Weather History Graph

Search for Another Location

Airport or City:

Trip Planner

Search our weather history database for the weather conditions in past years. The results will help you decide how hot, cold, wet, or windy it might be!

Date:

Astronomy

May. 18, 2013 Rise Set
Actual Time 6:28 AM CDT 8:23 PM CDT
Civil Twilight 6:00 AM CDT 8:51 PM CDT
Nautical Twilight 5:27 AM CDT 9:24 PM CDT
Astronomical Twilight 4:52 AM CDT 9:59 PM CDT
Moon 1:49 PM CDT (5/18) 1:58 AM CDT (5/18)
Length of Visible Light 14h 50m
Length of Day
13h 55m
First Quarter, 55% of the Moon is Illuminated
May 18
First Quarter
May 24
Full
May 31
Last Quarter
Jun 8
New
Jun 16
First Quarter

Hourly Weather History & Observations

Time (CDT) Temp. Heat Index Dew Point Humidity Pressure Visibility Wind Dir Wind Speed Gust Speed Precip Events Conditions
12:53 AM 79.0 °F - 73.0 °F 82% 29.78 in 6.0 mi South 16.1 mph 27.6 mph N/A   Haze
1:53 AM 77.0 °F - 73.0 °F 88% 29.78 in 5.0 mi South 17.3 mph - N/A   Clear
2:53 AM 75.0 °F - 72.0 °F 90% 29.78 in 5.0 mi South 13.8 mph 23.0 mph N/A   Clear
3:53 AM 73.9 °F - 72.0 °F 93% 29.78 in 5.0 mi South 12.7 mph - N/A   Clear
4:53 AM 73.9 °F - 71.1 °F 91% 29.78 in 5.0 mi South 10.4 mph - N/A   Clear
5:53 AM 73.9 °F - 69.1 °F 85% 29.79 in 7.0 mi South 12.7 mph - N/A   Clear
6:53 AM 73.0 °F - 68.0 °F 84% 29.82 in 7.0 mi South 15.0 mph - N/A   Clear
7:53 AM 73.0 °F - 69.1 °F 87% 29.84 in 6.0 mi South 13.8 mph - N/A   Clear
8:53 AM 75.0 °F - 70.0 °F 84% 29.84 in 6.0 mi South 15.0 mph 21.9 mph N/A   Haze
9:53 AM 78.1 °F - 71.1 °F 79% 29.84 in 6.0 mi South 17.3 mph 25.3 mph N/A   Haze
10:53 AM 82.9 °F 88.0 °F 72.0 °F 69% 29.83 in 6.0 mi South 15.0 mph 24.2 mph N/A   Haze
11:53 AM 84.9 °F 90.7 °F 72.0 °F 65% 29.82 in 7.0 mi South 18.4 mph 26.5 mph N/A   Clear
12:53 PM 84.9 °F 90.1 °F 71.1 °F 63% 29.81 in 7.0 mi South 17.3 mph 23.0 mph N/A   Clear
1:53 PM 89.6 °F 96.2 °F 71.6 °F 55% 29.81 in 9.0 mi South 16.1 mph 25.3 mph N/A   Clear
2:53 PM 90.0 °F 96.9 °F 72.0 °F 55% 29.77 in 8.0 mi South 17.3 mph 24.2 mph N/A   Clear
3:53 PM 89.1 °F 96.0 °F 72.0 °F 57% 29.76 in 8.0 mi SSE 15.0 mph 24.2 mph N/A   Clear
4:53 PM 91.0 °F 98.2 °F 72.0 °F 53% 29.74 in 8.0 mi South 20.7 mph 32.2 mph N/A   Clear
5:53 PM 89.1 °F 96.0 °F 72.0 °F 57% 29.74 in 7.0 mi South 21.9 mph 29.9 mph N/A   Clear
6:53 PM 87.1 °F 94.5 °F 73.0 °F 63% 29.71 in 7.0 mi SSE 18.4 mph - N/A   Clear
7:53 PM 86.0 °F 92.2 °F 72.0 °F 63% 29.71 in 6.0 mi SSE 17.3 mph 25.3 mph N/A   Haze
8:53 PM 84.0 °F 88.4 °F 70.0 °F 63% 29.72 in 6.0 mi SSE 16.1 mph 25.3 mph N/A   Haze
9:53 PM 82.0 °F 85.9 °F 70.0 °F 67% 29.73 in 7.0 mi SSE 19.6 mph 25.3 mph N/A   Clear
10:53 PM 80.6 °F 83.2 °F 68.0 °F 65% 29.77 in 10.0 mi SSE 20.7 mph 28.8 mph N/A   Clear
11:53 PM 79.0 °F - 68.0 °F 69% 29.78 in 10.0 mi SSE 17.3 mph - N/A   Clear